Regional Weather Roundup
Issued by NWS

Home | Current Version | Previous Version | Graphics & Text | Print | Product List | Glossary On
Versions: 1 2 3 4 5 6 7 8 9 10 11 12 13 14 15 16 17 18 19 20 21 22 23 24 25 26 27 28 29 30 31 32 33 34 35 36 37 38 39 40 41 42 43 44 45 46 47 48 49 50
000
ASUS43 KOAX 300810
RWRNE

WEATHER ROUNDUP FOR NEBRASKA
NATIONAL WEATHER SERVICE OMAHA NE
300 AM CDT THU MAR 30 2017

NOTES: SATELLITE DATA IS BEING USED TO AUGMENT CLOUD COVER ABOVE
       12000 FEET.
       "FAIR" INDICATES FEW OR NO CLOUDS BELOW 12,000 FEET WITH NO
       SIGNIFICANT WEATHER AND/OR OBSTRUCTIONS TO VISIBILITY.

  * THESE STATIONS DO NOT REPORT WEATHER SUCH AS RAIN...SNOW OR FOG.

NEZ001>004-019>022-054>056-300900-
NEBRASKA PANHANDLE

CITY           SKY/WX    TMP DP  RH WIND       PRES   REMARKS
SCOTTSBLUFF    CLEAR     35  31  85 E5        29.89F WCI  31
ALLIANCE       CLEAR     27  27 100 W6        29.88F WCI  20
CHADRON        CLEAR     35  32  88 CALM      29.89F
KIMBALL        CLEAR     34  34 100 W7        29.91F WCI  28
SIDNEY         CLEAR     33  31  92 W7        29.90F WCI  27
$$

NEZ057>060-069>072-079>082-300900-
SOUTHWEST NEBRASKA

CITY           SKY/WX    TMP DP  RH WIND       PRES   REMARKS
NORTH PLATTE   CLOUDY    40  34  79 N10       29.87F WCI  33
IMPERIAL       CLOUDY    35  33  92 N10       29.88S WCI  27
LEXINGTON      CLOUDY    38  36  89 N13       29.85S WCI  31
MCCOOK         CLOUDY    39  36  89 N17G25    29.85F WCI  30
OGALLALA       CLOUDY    37  36  96 NW5       29.89F FOG     WCI  33
$$

NEZ005>010-023>029-035>040-094-300900-
NORTH CENTRAL NEBRASKA

CITY           SKY/WX    TMP DP  RH WIND       PRES   REMARKS
VALENTINE      CLOUDY    38  34  85 E6        29.91F WCI  33
AINSWORTH      FOG       37  37 100 NE8       29.90F VSB 1/4 WCI  30
BROKEN BOW     CLOUDY    37  34  89 N16       29.85F WCI  28
O`NEILL        CLOUDY    37  37  98 N13       29.90S FOG     WCI  29
ORD            CLOUDY    37  34  89 N17G24    29.84F WCI  27
THEDFORD       CLOUDY    39  34  82 N10       29.90F WCI  33
$$

NEZ041-046>049-061>064-073>077-083>087-300900-
SOUTH CENTRAL NEBRASKA

CITY           SKY/WX    TMP DP  RH WIND       PRES   REMARKS
GRAND ISLAND   CLOUDY    37  37 100 N18       29.79F WCI  27
AURORA         CLOUDY    38  38 100 N21G26    29.77S WCI  27
HASTINGS       CLOUDY    37  35  92 N22G29    29.78S WCI  26
HEBRON         CLOUDY    39  38  96 N17G28    29.69S WCI  30
HOLDREGE       CLOUDY    37  35  90 N15G26    29.81S WCI  28
KEARNEY *      CLOUDY    37  34  87 N24       29.82S WCI  26
YORK           CLOUDY    39  39 100 N21G31    29.75S WCI  29
$$

NEZ011>018-030>034-042>045-300900-
NORTHEAST NEBRASKA

CITY           SKY/WX    TMP DP  RH WIND       PRES   REMARKS
NORFOLK        CLOUDY    38  35  89 N17G23    29.81F WCI  28
ALBION         CLOUDY    39  36  87 N10G17    29.83S WCI  33
BLAIR          CLOUDY    41  39  94 N17G24    29.71F FOG
FREMONT        CLOUDY    40  40  99 N8        29.76R
TEKAMAH        CLOUDY    41  38  89 N16       29.77F
WAYNE          CLOUDY    38  38  99 NE17      29.82F WCI  29
$$

NEZ050>053-065>068-078-088>093-300900-
SOUTHEAST NEBRASKA

CITY           SKY/WX    TMP DP  RH WIND       PRES   REMARKS
LINCOLN        CLOUDY    41  40  96 N22       29.72F
OMAHA EPPLEY   CLOUDY    43  38  82 N15       29.73R
BEATRICE       DRIZZLE   43  42  99 N20G26    29.65R
FALLS CITY     CLOUDY    48  47  96 E10       29.60R
NEBRASKA CITY  CLOUDY    44  44 100 NE14      29.66R
PLATTSMOUTH    CLOUDY    43  39  87 N13G18    29.69R
$$

NEZ044-045-051>053-067-300900-
OMAHA AREA

CITY           SKY/WX    TMP DP  RH WIND       PRES   REMARKS
OMAHA EPPLEY   CLOUDY    43  38  82 N15       29.73R
BLAIR          CLOUDY    41  39  94 N17G24    29.71F FOG
FREMONT        CLOUDY    40  40  99 N8        29.76R
MILLARD        CLOUDY    44  42  90 N8        29.73S
OFFUTT AFB     CLOUDY    43  41  93 N12       29.71R
PLATTSMOUTH    CLOUDY    43  39  87 N13G18    29.69R
WAHOO          CLOUDY    41  39  93 N17       29.74R
$$




USA.gov is the U.S. government's official web portal to all federal, state and local government web resources and services.